HST

Last updated on July 7, 2021, 6:13 p.m. UTC

1 20580U 90037B   21188.60022457  .00000578  00000-0  23967-4 0  9991
2 20580  28.4702 291.7739 0002467 282.3129  97.6100 15.09677093514307
UTC
Height (km)
Latitude
Longitude
Inclination
Orbital Period
UTC large
Height (km)
Speed (km/s)
/
Latitude / Longitude
Inclination (degrees)
Orbital Period (minutes)
Azimuth
Elevation
Range (km)
Doppler Factor
iOS Compass Heading
iOS Angle